Location: Portland
(39.0033°N, 81.7709°W)
Time: 02:40:23
(UTC+00:00)

Envisat - Visible Passes

Search period start: 12 June 2026 00:00
Search period end: 22 June 2026 00:00
Orbit: 761 x 763 km, 98.4° (Epoch: 11 June)

Date Brightness Start Highest point End Pass type
(mag) Time Alt. Az. Time Alt. Az. Time Alt. Az.
12 Jun 3.3 07:47:20 10° NNE 07:52:21 60° E 07:55:10 25° S visible
12 Jun 4.8 09:27:43 10° NNW 09:30:44 16° WNW 09:33:45 10° W visible
13 Jun 4.7 07:10:11 10° NE 07:14:21 25° E 07:16:54 17° SE visible
13 Jun 3.8 08:48:44 10° N 08:53:18 35° WNW 08:57:02 14° SW visible
14 Jun 5.6 06:35:31 10° E 06:36:09 10° E 06:36:47 10° E visible
14 Jun 2.9 08:10:33 10° N 08:15:38 81° WNW 08:18:45 24° SSW visible
15 Jun 3.9 07:32:57 10° NNE 07:37:46 43° E 07:40:28 23° SSE visible
15 Jun 4.5 09:12:35 10° NNW 09:16:22 22° WNW 09:20:09 10° WSW visible
16 Jun 5.1 06:56:14 10° NE 06:59:42 18° E 07:02:12 13° SE visible
16 Jun 3.4 08:33:59 10° N 08:38:51 48° WNW 08:42:19 18° SW visible
17 Jun 3.1 07:56:02 10° NNE 08:01:07 73° ESE 08:04:02 25° S visible
18 Jun 4.4 07:18:41 10° NE 07:23:10 31° E 07:25:45 20° SE visible
18 Jun 4.1 08:57:39 10° N 09:01:58 29° WNW 09:05:53 12° SW visible
19 Jun 5.4 06:42:42 10° ENE 06:45:01 13° E 06:47:18 10° ESE visible
19 Jun 3.0 08:19:20 10° N 08:24:22 67° WNW 08:27:35 22° SSW visible
20 Jun 3.5 07:41:35 10° NNE 07:46:32 52° E 07:49:18 25° SSE visible
20 Jun 4.7 09:21:40 10° NNW 09:25:01 18° WNW 09:28:22 10° WSW visible
21 Jun 4.8 07:04:35 10° NE 07:08:31 22° E 07:11:01 16° SE visible
21 Jun 3.7 08:42:50 10° N 08:47:32 39° WNW 08:51:08 16° SW visible
